Location: G�migny
(47.9646°N, 1.6950°E)
Time: 20:00:25
(UTC+00:00)

YAOGAN 6 - Pass Details

Date: 31 January 2020
Orbit: 465 x 506 km, 97.0° (Epoch: 23 February)

Event Time Altitude Azimuth Distance (km) Brightness Sun altitude
Rises 06:22:25 0° 18° (NNE) 2,527 6.3 -10.3°
Reaches altitude 10° 06:24:34 10° 26° (NNE) 1,640 5.4 -10.0°
Maximum altitude 06:27:55 41° 98° (E) 698 4.0 -9.4°
Drops below altitude 10° 06:31:13 10° 170° (S) 1,617 5.6 -8.9°
Sets 06:33:19 0° 177° (S) 2,486 6.4 -8.6°
